This demonstration page uses our WeatherBlox Daily Observations layout. Learn more.

Left ArrowRight Arrow

53.62937, 11.41316

Hourly Observations for August 15, 2021

Temp ( °F °C ) Dew Point ( °F °C ) Humidity (%) Winds ( mph kmh ) Pressure ( in mb ) Visibility ( mi km ) Precip ( " mm )
7:50 am 07:50 Mostly Cloudy with Drizzle 59 15 59 15 100 100 SW 3 6 29.94 1014 30 48 N/A
8:20 am 08:20 Mostly Cloudy with Drizzle 57 14 55 13 94 94 S 7 11 29.94 1014 4 6 N/A
8:50 am 08:50 Mostly Cloudy with Light Rain 57 14 55 13 94 94 S 6 9 29.94 1014 4 6 N/A
9:20 am 09:20 Mostly Cloudy with Light Rain 57 14 57 14 100 100 SSW 3 6 29.94 1014 4 6 N/A
9:50 am 09:50 Mostly Cloudy 59 15 57 14 94 94 S 3 6 29.94 1014 6 9 N/A
10:20 am 10:20 Mostly Cloudy with Light Rain 59 15 59 15 100 100 SSW 5 7 29.94 1014 3 5 N/A
10:50 am 10:50 Mostly Cloudy with Drizzle 61 16 59 15 94 94 S 7 11 29.94 1014 6 9 N/A
11:20 am 11:20 Mostly Cloudy 63 17 59 15 88 88 S 5 7 29.94 1014 30 48 N/A
11:50 am 11:50 Partly Cloudy 64 18 59 15 83 83 S 8 13 29.91 1013 30 48 N/A
12:20 pm 12:20 Mostly Cloudy 63 17 59 15 88 88 S 7 11 29.91 1013 30 48 N/A
12:50 pm 12:50 Mostly Cloudy 64 18 59 15 83 83 S 7 11 29.91 1013 30 48 N/A
1:20 pm 13:20 Mostly Cloudy 66 19 59 15 78 78 S 7 11 29.91 1013 30 48 N/A
1:50 pm 13:50 Mostly Cloudy 66 19 59 15 78 78 S 8 13 29.91 1013 30 48 N/A
2:20 pm 14:20 Mostly Cloudy 68 20 59 15 73 73 SSW 9 15 29.88 1012 30 48 N/A
2:50 pm 14:50 Partly Cloudy 70 21 61 16 73 73 SSW 13 20 29.88 1012 30 48 N/A
3:20 pm 15:20 Partly Cloudy 70 21 59 15 69 69 SSW 12 19 29.88 1012 30 48 N/A
3:50 pm 15:50 Mostly Sunny 73 23 61 16 65 65 SW 7 11 29.85 1011 30 48 N/A
4:20 pm 16:20 Mostly Sunny 73 23 61 16 65 65 S 7 11 29.85 1011 30 48 N/A
4:50 pm 16:50 Mostly Sunny 75 24 61 16 61 61 VRB 5 7 29.82 1010 30 48 N/A
5:20 pm 17:20 Mostly Sunny 73 23 61 16 65 65 VRB 6 9 29.82 1010 30 48 N/A
5:50 pm 17:50 Mostly Sunny 75 24 61 16 61 61 ESE 3 6 29.82 1010 30 48 N/A
6:20 pm 18:20 Mostly Sunny 75 24 63 17 65 65 VRB 2 4 29.79 1009 30 48 N/A
6:50 pm 18:50 Partly Cloudy 73 23 61 16 65 65 ESE 3 6 29.79 1009 30 48 N/A
7:20 pm 19:20 Mostly Sunny 73 23 61 16 65 65 VRB 2 4 29.76 1008 30 48 N/A
7:50 pm 19:50 Mostly Sunny 72 22 63 17 73 73 ESE 2 4 29.76 1008 7 11 N/A
8:20 pm 20:20 Mostly Sunny 72 22 61 16 69 69 SSE 5 7 29.76 1008 7 11 N/A
8:50 pm 20:50 Mostly Clear 70 21 59 15 69 69 SSE 5 7 29.74 1007 7 11 N/A
9:20 pm 21:20 Mostly Clear 70 21 59 15 69 69 S 6 9 29.74 1007 7 11 N/A
9:50 pm 21:50 Mostly Clear 68 20 59 15 73 73 S 7 11 29.74 1007 7 11 N/A

Powered by AerisWeather